Location: Pian di Sc�
(43.6333°N, 11.5500°E)
Time: 17:48:33
(UTC+00:00)

SL-4 R/B - Pass Details

Date: 07 August 2020
Orbit: 428 x 665 km, 51.6° (Epoch: 17 September)

Event Time Altitude Azimuth Distance (km) Brightness Sun altitude
Exits shadow 01:57:58 10° 307° (NW) 1,551 4.3 -20.0°
Reaches altitude 10° 01:57:59 10° 307° (NW) 1,544 4.3 -20.0°
Maximum altitude 02:01:23 60° 28° (NNE) 495 2.0 -19.6°
Drops below altitude 10° 02:04:45 10° 110° (ESE) 1,522 4.5 -19.1°
Sets 02:06:52 0° 114° (ESE) 2,394 5.5 -18.9°
